Flag for Germany Weather past 2 weeks in Fellbach, Baden-Württemberg, Germany

Now
70 °F

Scattered clouds.


Feels Like: 70 °F
Forecast: 64 / 94 °F
Wind: 3 mph from East

Location: Stuttgart-Echterdingen

Current Time: Aug 5, 2015 at 10:59:27 AM

Latest Report: Aug 5, 2015 at 10:20 AM


Visibility: N/A

Pressure: 30.12 "Hg

Humidity: 78%

Dew point: 63 °F

Location of FellbachLocation

Historic Weather in Fellbach — Graph

°F

Fellbach temperature yesterday

Maximum temperature yesterday: 84 °F (at 11:20 AM)
Minimum temperature yesterday: 61 °F (at 5:20 AM)
Average temperature yesterday: 71 °F

Past Weeks' High & Low Weather Summary

 TemperatureHumidityPressure
High95 °F (Jul 22, 2:20 PM)100% (Aug 4, 11:20 PM)30.15 "Hg (Aug 4, 11:20 PM)
Low46 °F (Jul 31, 5:50 AM)26% (Jul 22, 2:20 PM)29.71 "Hg (Jul 24, 7:20 PM)
Average68 °F62%29.96 "Hg
* Reported Jul 21 9:20 AM — Aug 5 9:50 AM, Fellbach, Weather by CustomWeather, © 2015

Note: Actual official high and low records may vary slightly from our data, if they occured in-between our weather recording intervals... More about our weather records

Advertising

Fellbach weather history for previous 24 hours

 ConditionsComfort  
Time TempWeatherWind HumidityBarometerVisibility
9:50 AM
Wed, Aug 5
66 °FScattered clouds.5 mph88%30.12 "HgN/A
9:20 AM64 °FFog.2 mph94%30.12 "Hg3 mi
8:50 AM63 °FFog.2 mph100%30.12 "Hg2 mi
8:20 AM61 °FFog.1 mph100%30.12 "Hg1 mi
7:50 AM61 °FFog.3 mph100%30.12 "Hg0 mi
7:20 AM59 °FFog.2 mph100%30.12 "Hg0 mi
6:20 AM59 °FFog.1 mph100%30.12 "Hg0 mi
5:20 AM59 °FFog.2 mph100%30.12 "Hg1 mi
4:50 AM57 °FFog.No wind100%30.12 "Hg3 mi
4:20 AM57 °FLight fog.1 mph100%30.12 "Hg4 mi
3:50 AM57 °FLight fog.1 mph100%30.12 "Hg5 mi
3:20 AM59 °FClear.2 mph100%30.12 "Hg10 mi
2:50 AM59 °FClear.2 mph100%30.12 "Hg10 mi
2:20 AM59 °FClear.2 mph100%30.12 "Hg10 mi
1:50 AM61 °FClear.3 mph94%30.12 "Hg10 mi
1:20 AM61 °FClear.1 mph100%30.12 "Hg10 mi
12:20 AM63 °FClear.2 mph94%30.15 "Hg10 mi
11:50 PM
Tue, Aug 4
63 °FClear.2 mph100%30.15 "Hg10 mi
11:20 PM63 °FClear.2 mph100%30.12 "Hg10 mi
10:50 PM64 °FClear.2 mph94%30.12 "Hg10 mi
10:20 PM64 °FLight rain. Partly cloudy.3 mph94%30.12 "HgN/A
9:50 PM64 °FSprinkles. Broken clouds.2 mph88%30.12 "HgN/A
9:20 PM66 °FSprinkles. Partly sunny.10 mph88%30.12 "HgN/A
8:50 PM68 °FSprinkles. Partly sunny.15 mph78%30.09 "HgN/A
8:20 PM70 °FPartly sunny.21 mph73%30.07 "HgN/A
7:50 PM75 °FPartly sunny.9 mph57%30.04 "HgN/A
7:20 PM75 °FScattered clouds.5 mph54%30.04 "HgN/A
6:50 PM77 °FScattered clouds.5 mph51%30.04 "HgN/A
6:20 PM77 °FSunny.7 mph54%30.04 "Hg10 mi
5:50 PM75 °FPartly sunny.7 mph57%30.04 "HgN/A
5:20 PM75 °FPartly sunny.7 mph57%30.04 "HgN/A
4:50 PM73 °FPartly sunny.8 mph61%30.04 "HgN/A
4:20 PM73 °FLight rain. Broken clouds.12 mph65%30.07 "HgN/A
3:50 PM73 °FLight rain. Broken clouds.16 mph65%30.04 "HgN/A
3:20 PM75 °FLight rain. Partly sunny.6 mph57%30.04 "HgN/A
2:50 PM73 °FLight rain. Broken clouds.9 mph65%30.04 "HgN/A
2:20 PM77 °FPartly sunny.14 mph54%30.04 "HgN/A
1:50 PM79 °FPassing clouds.17 mph48%30.04 "HgN/A
1:20 PM81 °FSunny.20 mph45%30.01 "Hg10 mi
12:50 PM81 °FSunny.20 mph42%30.01 "Hg10 mi
12:20 PM82 °FPassing clouds.18 mph40%30.01 "HgN/A
11:50 AM84 °FSunny.16 mph37%29.98 "Hg10 mi
11:20 AM84 °FPassing clouds.13 mph40%29.98 "HgN/A
10:50 AM82 °FPassing clouds.6 mph42%29.95 "HgN/A
10:20 AM81 °FSunny.3 mph45%29.95 "Hg10 mi
Weather by CustomWeather, © 2015

See weather overviewHow to use our weather pages